Total_Precipitation_Accumulation
0.03 0.09 0.28 0.33 0.35 0.32 0.29 0.27 0.25 0.23 0.24 0.27 0.29 0.30 0.31 0.30 0.27 0.24 0.25 0.25 0.26 0.28 0.34 0.39 0.41 0.38 0.33 0.31 0.28 0.20 0.15 0.12 0.13 0.12 0.10 0.12 0.13 0.14 0.13 0.14 0.16 0.19 0.24
0.03 0.10 0.28 0.33 0.37 0.33 0.32 0.30 0.27 0.24 0.26 0.32 0.37 0.37 0.32 0.29 0.28 0.26 0.22 0.23 0.24 0.27 0.36 0.41 0.35 0.28 0.20 0.15 0.12 0.10 0.09 0.08 0.06 0.03 0.02 0.03 0.06 0.08 0.08 0.08 0.11 0.14 0.17
0.03 0.11 0.27 0.35 0.37 0.34 0.32 0.28 0.26 0.24 0.29 0.36 0.43 0.41 0.35 0.27 0.25 0.25 0.22 0.22 0.23 0.28 0.31 0.32 0.25 0.20 0.15 0.13 0.09 0.06 0.05 0.04 0.03 0.02 0.01 0.03 0.05 0.06 0.07 0.07 0.09 0.11 0.14
0.07 0.13 0.24 0.37 0.38 0.35 0.34 0.32 0.31 0.30 0.32 0.36 0.42 0.43 0.38 0.33 0.31 0.29 0.26 0.21 0.21 0.22 0.21 0.23 0.19 0.15 0.11 0.09 0.07 0.05 0.04 0.04 0.02 0.02 0.04 0.04 0.04 0.07 0.09 0.10 0.12 0.13 0.15
0.14 0.18 0.29 0.38 0.40 0.37 0.36 0.33 0.34 0.35 0.36 0.40 0.43 0.42 0.37 0.35 0.35 0.32 0.29 0.22 0.20 0.19 0.18 0.19 0.16 0.12 0.08 0.06 0.05 0.04 0.05 0.04 0.02 0.02 0.03 0.05 0.06 0.10 0.14 0.14 0.17 0.18 0.17
0.21 0.30 0.41 0.43 0.43 0.43 0.41 0.38 0.36 0.37 0.42 0.45 0.46 0.45 0.38 0.38 0.40 0.36 0.30 0.21 0.18 0.17 0.18 0.18 0.16 0.13 0.09 0.07 0.05 0.04 0.05 0.04 0.02 0.02 0.03 0.05 0.06 0.13 0.15 0.16 0.19 0.21 0.21
0.30 0.41 0.53 0.56 0.53 0.50 0.49 0.51 0.47 0.46 0.50 0.53 0.54 0.51 0.45 0.43 0.43 0.37 0.30 0.20 0.17 0.16 0.18 0.17 0.16 0.14 0.12 0.10 0.08 0.06 0.05 0.04 0.02 0.02 0.02 0.04 0.07 0.14 0.17 0.19 0.22 0.24 0.25
0.55 0.64 0.74 0.74 0.67 0.59 0.53 0.53 0.52 0.53 0.57 0.59 0.57 0.57 0.53 0.48 0.45 0.41 0.32 0.23 0.20 0.20 0.22 0.19 0.17 0.16 0.14 0.12 0.10 0.08 0.05 0.03 0.02 0.02 0.02 0.03 0.08 0.17 0.18 0.18 0.20 0.22 0.24
1.01 1.04 0.99 0.90 0.78 0.72 0.62 0.55 0.52 0.53 0.58 0.61 0.62 0.61 0.56 0.52 0.49 0.44 0.36 0.28 0.25 0.26 0.26 0.22 0.18 0.16 0.15 0.13 0.11 0.09 0.05 0.04 0.02 0.02 0.02 0.03 0.08 0.18 0.22 0.22 0.25 0.25 0.25
1.41 1.44 1.34 1.18 1.00 0.88 0.77 0.62 0.56 0.55 0.56 0.58 0.58 0.54 0.47 0.44 0.44 0.41 0.31 0.28 0.28 0.28 0.26 0.21 0.18 0.18 0.15 0.13 0.12 0.09 0.07 0.05 0.03 0.03 0.03 0.05 0.12 0.24 0.28 0.28 0.31 0.30 0.27
1.72 1.70 1.67 1.49 1.25 1.05 0.89 0.67 0.61 0.59 0.58 0.56 0.54 0.46 0.44 0.44 0.42 0.36 0.25 0.20 0.22 0.25 0.24 0.23 0.20 0.19 0.16 0.13 0.13 0.12 0.09 0.06 0.04 0.03 0.05 0.09 0.17 0.25 0.26 0.27 0.26 0.24 0.23
1.87 1.84 1.83 1.71 1.47 1.27 1.08 0.86 0.76 0.66 0.63 0.57 0.49 0.46 0.41 0.42 0.45 0.39 0.33 0.26 0.23 0.23 0.23 0.24 0.23 0.22 0.20 0.16 0.14 0.12 0.11 0.09 0.08 0.06 0.06 0.08 0.14 0.21 0.23 0.22 0.21 0.21 0.20
2.07 2.03 1.99 1.93 1.70 1.44 1.19 0.96 0.83 0.72 0.68 0.63 0.52 0.48 0.48 0.49 0.49 0.52 0.49 0.42 0.35 0.26 0.26 0.26 0.27 0.22 0.20 0.19 0.18 0.14 0.12 0.12 0.11 0.08 0.07 0.06 0.11 0.21 0.27 0.26 0.23 0.23 0.22
2.23 2.09 2.08 2.04 1.90 1.68 1.39 1.14 0.89 0.74 0.70 0.68 0.60 0.56 0.59 0.56 0.51 0.50 0.49 0.45 0.44 0.34 0.31 0.28 0.25 0.22 0.20 0.19 0.20 0.20 0.18 0.17 0.16 0.15 0.12 0.09 0.09 0.15 0.23 0.28 0.30 0.31 0.31
2.17 2.14 2.11 2.00 1.91 1.82 1.67 1.40 1.06 0.86 0.75 0.74 0.74 0.68 0.66 0.63 0.57 0.56 0.52 0.48 0.41 0.38 0.35 0.32 0.28 0.26 0.24 0.23 0.22 0.22 0.22 0.20 0.19 0.20 0.17 0.13 0.10 0.11 0.17 0.24 0.33 0.39 0.42
1.89 2.06 2.08 1.99 1.84 1.72 1.68 1.60 1.35 1.03 0.85 0.81 0.80 0.76 0.73 0.71 0.66 0.62 0.58 0.55 0.48 0.44 0.39 0.39 0.36 0.35 0.33 0.31 0.26 0.23 0.23 0.22 0.19 0.18 0.17 0.16 0.15 0.13 0.13 0.21 0.32 0.43 0.53
1.62 1.84 1.99 2.05 1.96 1.75 1.64 1.63 1.56 1.37 1.09 0.89 0.83 0.84 0.79 0.74 0.70 0.68 0.66 0.59 0.53 0.52 0.51 0.53 0.51 0.49 0.43 0.39 0.35 0.33 0.31 0.29 0.26 0.22 0.19 0.18 0.19 0.19 0.18 0.20 0.29 0.41 0.55
1.49 1.66 1.81 1.85 1.95 1.87 1.71 1.65 1.61 1.51 1.35 1.15 0.96 0.87 0.84 0.80 0.80 0.80 0.78 0.72 0.66 0.65 0.64 0.62 0.61 0.59 0.51 0.46 0.42 0.41 0.40 0.37 0.34 0.31 0.30 0.27 0.25 0.22 0.21 0.23 0.28 0.38 0.50
1.37 1.54 1.76 1.69 1.77 1.90 1.95 1.86 1.71 1.60 1.45 1.32 1.16 0.97 0.91 0.92 0.94 0.91 0.83 0.83 0.84 0.77 0.72 0.71 0.65 0.62 0.55 0.51 0.52 0.48 0.45 0.42 0.38 0.37 0.37 0.36 0.35 0.33 0.31 0.30 0.28 0.27 0.34
1.36 1.47 1.68 1.66 1.75 1.94 2.13 2.11 2.00 1.80 1.57 1.45 1.27 1.09 1.00 0.98 1.03 0.99 0.92 0.92 0.93 0.87 0.74 0.71 0.69 0.69 0.62 0.62 0.61 0.55 0.51 0.47 0.44 0.40 0.38 0.38 0.38 0.37 0.37 0.36 0.33 0.32 0.31
1.48 1.48 1.59 1.67 1.75 1.86 1.95 1.88 1.80 1.75 1.66 1.58 1.47 1.34 1.21 1.14 1.17 1.17 1.09 1.04 1.05 0.98 0.87 0.86 0.91 0.86 0.78 0.80 0.74 0.58 0.49 0.47 0.45 0.43 0.41 0.38 0.35 0.34 0.33 0.33 0.33 0.33 0.33
1.47 1.49 1.61 1.68 1.73 1.74 1.80 1.90 1.88 1.96 1.92 1.87 1.81 1.66 1.50 1.38 1.36 1.34 1.33 1.30 1.25 1.16 1.06 1.01 1.03 0.98 0.93 0.96 0.93 0.85 0.62 0.48 0.41 0.39 0.40 0.38 0.39 0.38 0.35 0.35 0.34 0.34 0.32
1.34 1.53 1.63 1.68 1.70 1.74 1.94 2.30 2.26 2.19 2.12 2.03 1.95 1.88 1.74 1.64 1.58 1.48 1.44 1.49 1.45 1.34 1.21 1.15 1.13 1.11 1.11 1.11 1.07 1.09 0.86 0.60 0.47 0.41 0.37 0.35 0.37 0.41 0.43 0.42 0.40 0.36 0.32
1.15 1.40 1.67 1.77 1.83 1.93 2.11 2.35 2.41 2.16 1.99 1.93 1.93 1.94 1.92 1.75 1.68 1.64 1.59 1.57 1.58 1.53 1.38 1.30 1.29 1.26 1.23 1.19 1.15 1.04 0.96 0.80 0.72 0.55 0.41 0.38 0.37 0.36 0.40 0.43 0.42 0.41 0.41
1.04 1.23 1.49 1.73 1.80 1.97 2.10 2.22 2.42 2.21 1.92 1.91 1.95 1.90 1.91 1.85 1.68 1.63 1.60 1.53 1.47 1.46 1.46 1.42 1.37 1.35 1.25 1.15 1.09 1.04 0.98 0.84 0.71 0.67 0.52 0.39 0.37 0.34 0.34 0.38 0.42 0.44 0.45
0.92 1.04 1.22 1.43 1.53 1.63 1.78 1.96 2.15 2.21 2.08 1.94 1.85 1.80 1.76 1.76 1.73 1.66 1.62 1.53 1.42 1.36 1.33 1.33 1.34 1.33 1.30 1.22 1.12 1.06 1.02 0.94 0.80 0.76 0.71 0.55 0.48 0.40 0.37 0.37 0.40 0.43 0.46